Zurück zum Katalog

STARLINK-33960

AktivKommunikationVLEO
NORAD 63966·PAYLOAD·🇺🇸 United States

Gestartet May 13, 2025 von Cape Canaveral Space Force Station

Loading…

Nächste Überflüge (nächste 24 Stunden)

TLE

AktuellSource: CelesTrak SupGP

Epoche: Sep 14, 2026, 20:48 UTC

1 63966C 25099Q   26257.86715278  .00012750  00000+0  46177-3 0  2570
2 63966  43.0004 187.6063 0001353 264.9831   9.8597 15.27574816    14

Verfolge STARLINK-33960 in Echtzeit mit AllMySat

Download on the App Store